Regional Weather Roundup
Issued by NWS Newport/Morehead, NC

Home | Current Version | Previous Version | Text Only | Print | Product List | Glossary On
Versions: 1 2 3 4 5 6 7 8 9 10 11 12 13 14 15 16 17 18 19 20 21 22 23 24 25 26 27 28 29 30 31 32 33 34 35 36 37 38 39 40 41 42 43 44 45 46 47 48 49 50
000
ASUS42 KMHX 101424
RWRMHX
WEATHER ROUNDUP FOR EASTERN NORTH CAROLINA
NATIONAL WEATHER SERVICE NEWPORT/MOREHEAD CITY NC
900 AM EST SAT DEC 10 2016

NOTE: "FAIR" INDICATES FEW OR NO CLOUDS BELOW 12,000 FEET
WITH NO SIGNIFICANT WEATHER AND/OR OBSTRUCTIONS TO VISIBILITY

NCZ015>017-031-032-045>047-102-103-101500-
NORTH COAST

CITY           SKY/WX    TMP DP  RH WIND       PRES   REMARKS
EDENTON        SUNNY     32  22  66 CALM      30.56
ELIZABETH CITY SUNNY     32  22  66 NW7       30.55R
KITTY HAWK     SUNNY     35  26  68 NW7       30.52R
MANTEO         SUNNY     36  24  63 N10       30.53R

$$

NCZ045>047-081-094-103-104-101500-
CENTRAL COAST

CITY           SKY/WX    TMP DP  RH WIND       PRES   REMARKS
FRISCO         SUNNY     40  22  48 VRB3      30.52R

$$

NCZ095-097-098-100-101-101500-
SOUTHERN COAST

CITY           SKY/WX    TMP DP  RH WIND       PRES   REMARKS
BEAUFORT       SUNNY     37  27  67 N7        30.54R
CEDAR ISLAND   NOT AVBL
JACKSONVILLE   SUNNY     32  19  58 N9        30.55S
PINEY ISLAND   SUNNY    N/A N/A N/A N8        30.53R
WILMINGTON     SUNNY     32  21  64 NE7       30.56R


$$

NCZ011>013-027>030-043-044-078>080-089-090>093-098-101500-
COASTAL PLAIN

CITY           SKY/WX    TMP DP  RH WIND       PRES   REMARKS
AHOSKIE          N/A     28  17  65 CALM      30.56R
CLINTON        SUNNY     31  19  62 N6        30.58R
ELIZABETHTOWN  SUNNY     30  20  66 N3        30.58R
GOLDSBORO      SUNNY     30  18  61 N6        30.55R
GREENVILLE     SUNNY     32  21  64 N6        30.56R
HAVELOCK       SUNNY     35  23  61 N8        30.56R
KENANSVILLE    SUNNY     30  19  64 N6        30.58R
KINSTON        SUNNY     30  21  69 CALM      30.57R
NEW BERN       SUNNY     31  20  63 N7        30.56S
RICHLANDS      SUNNY     32  23  69 N6        30.56R
ROCKY MOUNT    SUNNY     29  19  66 NW6       30.57R
WASHINGTON     SUNNY     31  19  61 N6        30.56S
WHITEVILLE     SUNNY     32  18  57 NE5       30.57R

$$

AMZ130-135-150-152-154-156-158-170-250-252-270-ANZ085-086-088-633-658-670-101500-
MARINE OBSERVATIONS

STATION/POSITION TIME  TEMP    WIND        PRES    WAVE   SWELL
                       AIR SEA DIR/SP/G            HT/PER HT/PER
                 (UTC) (F)     (DEG/KT/KT) (MB)    (FT/S) (FT/S)
CHESAPEAKE LIGHT NOT AVBL
64 E VA BEACH    1350   40 58  330/ 12/ 17 1032.5    5/ 6   3/ 6
DUCK             1400   34 51  330/ 12/ 15 1033.1
2 E DUCK         NOT AVBL
OREGON INLET     1400   37 49  310/  9/ 11 1033.5
13E OREGON INLT  NOT AVBL
HATTERAS CG      1400   38 52  360/ 13/ 14 1033.1
DIAMOND BUOY     1350   42 77   10/ 12/ 19 1033.3    5/ 9   3/ 9
CAPE LOOKOUT     1400   37     360/ 10/ 12 1033.7
BEAUFORT LAB     1400   35 50   10/  6/  8 1033.2
30 SE NEW RVR IN 1408   42 69   30/  8/ 14 1034.1
30 SE NEW RVR IN 1343      69                N/A     3/ 4
27 SE WRIGHTSVLE 1408   43 69   10/ 10/ 16 1033.7
5 SE WRIGHTSVLE  1408   35 60   30/ 12/ 23 1034.0
225 S CAPE HAT   1350   59 73   10/ 10/ 12 1029.8    5/ 7   5/ 7
41 SE CHARLESTON 1350   50 73   40/ 12/ 16 1032.8    4/ 6   2/ 6

$$




USA.gov is the U.S. government's official web portal to all federal, state and local government web resources and services.